West Lebanon, NH

7:55 PM EST on January 21, 2017 (GMT -0500)
Lebanon

Weather History for KLEB - December, 2011

Change the Weather History Date:

Sunday, December 4, 2011

  Actual Average Record
Temperature  
Mean Temperature 34 °F -  
Max Temperature 48 °F 36 °F 67 °F (1982)
Min Temperature 21 °F 20 °F -22 °F (1940)
Degree Days  
Heating Degree Days 30    
Moisture  
Dew Point 28 °F    
Average Humidity 75    
Maximum Humidity 89    
Minimum Humidity 50    
Precipitation  
Precipitation 0.00 in - - ()
Sea Level Pressure  
Sea Level Pressure 30.44 in    
Wind  
Wind Speed 3 mph (South)    
Max Wind Speed 16 mph    
Max Gust Speed 23 mph    
Visibility 10 miles    
Events      
Averages and records for this station are not official NWS values.
T = Trace of Precipitation, MM = Missing Value Source: NWS Daily Summary

Daily Weather History Graph

Daily Weather History Graph

Search for Another Location

Airport or City:

Trip Planner

Search our weather history database for the weather conditions in past years. The results will help you decide how hot, cold, wet, or windy it might be!

Date:

Astronomy

Dec. 04, 2011 Rise Set
Actual Time 7:05 AM EST 4:12 PM EST
Civil Twilight 6:33 AM EST 4:45 PM EST
Nautical Twilight 5:57 AM EST 5:21 PM EST
Astronomical Twilight 5:22 AM EST 5:55 PM EST
Moon 12:49 PM EST (12/4) 1:19 AM EST (12/4)
Length of Visible Light 10h 11m
Length of Day
9h 07m
Waxing Gibbous, 71% of the Moon is Illuminated
Dec 4
Waxing Gibbous
Dec 10
Full
Dec 17
Last Quarter
Dec 24
New
Jan 1
First Quarter

Hourly Weather History & Observations

Time (EST) Temp. Windchill Dew Point Humidity Pressure Visibility Wind Dir Wind Speed Gust Speed Precip Events Conditions
12:53 AM 21.9 °F - 19.0 °F 89% 30.58 in 10.0 mi Calm Calm - N/A   Clear
1:53 AM 21.9 °F - 19.0 °F 89% 30.56 in 10.0 mi Calm Calm - N/A   Clear
2:53 AM 23.0 °F - 19.0 °F 85% 30.56 in 10.0 mi Calm Calm - N/A   Clear
3:53 AM 21.0 °F - 18.0 °F 88% 30.56 in 10.0 mi Calm Calm - N/A   Clear
4:53 AM 21.9 °F 17.2 °F 19.0 °F 89% 30.56 in 10.0 mi South 3.5 mph - N/A   Clear
5:53 AM 21.0 °F - 18.0 °F 88% 30.55 in 9.0 mi Calm Calm - N/A   Clear
6:53 AM 21.9 °F - 19.0 °F 89% 30.54 in 8.0 mi Calm Calm - N/A   Clear
7:53 AM 21.9 °F - 19.0 °F 89% 30.53 in 8.0 mi Calm Calm - N/A   Clear
8:53 AM 30.0 °F - 26.1 °F 85% 30.51 in 8.0 mi Calm Calm - N/A   Clear
9:53 AM 37.0 °F 32.4 °F 30.0 °F 76% 30.49 in 10.0 mi Variable 5.8 mph - N/A   Clear
10:53 AM 43.0 °F 37.2 °F 30.9 °F 62% 30.47 in 10.0 mi SW 10.4 mph - N/A   Clear
11:53 AM 46.0 °F 39.9 °F 30.9 °F 56% 30.43 in 10.0 mi SSW 13.8 mph - N/A   Clear
12:53 PM 48.0 °F - 30.9 °F 52% 30.39 in 10.0 mi South 16.1 mph 23.0 mph N/A   Clear
1:53 PM 48.9 °F - 30.9 °F 50% 30.37 in 10.0 mi South 12.7 mph 19.6 mph N/A   Clear
2:53 PM 48.9 °F - 32.0 °F 52% 30.37 in 10.0 mi SSW 12.7 mph 18.4 mph N/A   Clear
3:53 PM 46.9 °F - 32.0 °F 56% 30.35 in 10.0 mi SSW 6.9 mph - N/A   Clear
4:53 PM 42.1 °F - 32.0 °F 67% 30.36 in 10.0 mi Calm Calm - N/A   Clear
5:53 PM 43.0 °F - 33.1 °F 68% 30.34 in 10.0 mi Calm Calm - N/A   Clear
6:53 PM 43.0 °F 38.2 °F 34.0 °F 71% 30.36 in 10.0 mi South 8.1 mph - N/A   Clear
7:53 PM 41.0 °F 36.4 °F 34.0 °F 76% 30.35 in 10.0 mi South 6.9 mph - N/A   Clear
8:53 PM 42.1 °F 38.4 °F 35.1 °F 76% 30.34 in 10.0 mi South 5.8 mph - N/A   Clear
9:53 PM 43.0 °F 38.8 °F 36.0 °F 76% 30.33 in 10.0 mi South 6.9 mph - N/A   Clear
10:53 PM 39.9 °F 34.5 °F 35.1 °F 83% 30.34 in 10.0 mi South 8.1 mph - N/A   Clear
11:53 PM 42.1 °F 37.1 °F 36.0 °F 79% 30.33 in 10.0 mi South 8.1 mph - N/A   Clear